UAE59 OMDB-EDDH

Flight info

Callsign UAE59
Flight time N/A
Altitude 31000
Route ANVIX7F ANVIX L223 TARDI N629 BOTAM Y855 LAKLU/N0501F320 Q204 NALKI G652 TOKRA DCT ALROK DCT BOSOB DCT ITRUX Y511 PMA Z712 WEJ L677 GESON Q777 LAGVI/N0490F340 Q777 RASDA DCT OTHON DCT VAXOS DCT RDS UL609 MES DCT EVIVI L863 OKANA DCT BABIT DCT ARSIN DCT DITIS DCT KILNU DCT ABGUS DCT DIRBO/N0456F230 T902 RARUP RARUP3P
Aircraft B77W/H-SDE1E2E3FGHIJ2J3J4J5M1RWXY/LB1D1

Departure

Time N/A
Airport Dubai International Airport (OMDB)

Arrival

Time 2026-04-22 22:17
Airport Hamburg Helmut Schmidt Airport (EDDH)
Time Latitude Longitude Altitude Speed Heading
2026-04-22 21:21 48.54937 15.55642 36202 ft 467 kts 323°
2026-04-22 21:21 48.59217 15.50283 36203 ft 467 kts 323°
2026-04-22 21:22 48.64172 15.44066 36204 ft 468 kts 323°
2026-04-22 21:22 48.69222 15.37711 36214 ft 468 kts 324°
2026-04-22 21:23 48.74213 15.31414 36211 ft 467 kts 323°
2026-04-22 21:23 48.79229 15.25069 36217 ft 468 kts 323°
2026-04-22 21:24 48.84229 15.18726 36214 ft 468 kts 323°
2026-04-22 21:24 48.89220 15.12377 36228 ft 468 kts 323°
2026-04-22 21:25 48.94133 15.05903 36219 ft 470 kts 322°
2026-04-22 21:25 48.99017 14.99337 36227 ft 470 kts 322°
2026-04-22 21:26 49.03893 14.92775 36219 ft 470 kts 322°
2026-04-22 21:26 49.08766 14.86206 36223 ft 470 kts 322°
2026-04-22 21:27 49.13662 14.79590 36236 ft 470 kts 322°
2026-04-22 21:27 49.18517 14.73014 36245 ft 469 kts 322°
2026-04-22 21:28 49.23423 14.66353 36239 ft 470 kts 322°
2026-04-22 21:28 49.28356 14.59635 36242 ft 470 kts 322°
2026-04-22 21:29 49.33238 14.52969 36240 ft 470 kts 322°
2026-04-22 21:29 49.38098 14.46315 36244 ft 470 kts 322°
2026-04-22 21:30 49.43005 14.39577 36242 ft 469 kts 322°
2026-04-22 21:30 49.47858 14.32896 36251 ft 470 kts 321°
2026-04-22 21:31 49.52779 14.26103 36248 ft 470 kts 321°
2026-04-22 21:31 49.57642 14.19369 36256 ft 471 kts 321°
2026-04-22 21:32 49.62505 14.12618 36250 ft 471 kts 321°
2026-04-22 21:32 49.67395 14.05809 36262 ft 472 kts 321°
2026-04-22 21:33 49.72230 13.99058 36257 ft 471 kts 321°
2026-04-22 21:33 49.77061 13.92294 36263 ft 471 kts 321°
2026-04-22 21:34 49.81921 13.85470 36263 ft 471 kts 321°
2026-04-22 21:34 49.86758 13.78659 36266 ft 471 kts 321°
2026-04-22 21:35 49.91575 13.71857 36265 ft 471 kts 321°
2026-04-22 21:35 49.96437 13.64973 36270 ft 472 kts 321°
2026-04-22 21:36 50.01261 13.58122 36270 ft 472 kts 321°
2026-04-22 21:36 50.06067 13.51279 36269 ft 472 kts 321°
2026-04-22 21:37 50.10902 13.44373 36277 ft 472 kts 321°
2026-04-22 21:37 50.15759 13.37416 36282 ft 472 kts 321°
2026-04-22 21:38 50.20562 13.30517 36282 ft 473 kts 321°
2026-04-22 21:38 50.25395 13.23554 36286 ft 473 kts 321°
2026-04-22 21:39 50.30209 13.16599 36289 ft 473 kts 320°
2026-04-22 21:39 50.35029 13.09615 36285 ft 473 kts 321°
2026-04-22 21:40 50.39830 13.02639 36288 ft 473 kts 321°
2026-04-22 21:40 50.44637 12.95633 36284 ft 474 kts 321°
2026-04-22 21:41 50.49501 12.88647 36271 ft 471 kts 324°
2026-04-22 21:41 50.54622 12.82125 36279 ft 471 kts 324°
2026-04-22 21:42 50.59677 12.75663 36278 ft 471 kts 324°
2026-04-22 21:42 50.64750 12.69130 36298 ft 471 kts 324°
2026-04-22 21:43 50.69805 12.62586 36309 ft 471 kts 324°
2026-04-22 21:43 50.74851 12.56026 36302 ft 472 kts 324°
2026-04-22 21:44 50.79932 12.49397 36321 ft 472 kts 324°
2026-04-22 21:44 50.84961 12.42815 36314 ft 471 kts 324°
2026-04-22 21:45 50.90008 12.36188 36324 ft 472 kts 324°
2026-04-22 21:45 50.95125 12.29450 36322 ft 472 kts 323°
2026-04-22 21:46 51.00217 12.22724 36311 ft 472 kts 323°
2026-04-22 21:46 51.05271 12.16029 36318 ft 472 kts 323°
2026-04-22 21:47 51.10327 12.09311 36324 ft 473 kts 323°
2026-04-22 21:47 51.15362 12.02601 36328 ft 472 kts 323°
2026-04-22 21:48 51.20431 11.95826 36331 ft 473 kts 323°
2026-04-22 21:48 51.25693 11.89633 36318 ft 467 kts 335°
2026-04-22 21:49 51.31605 11.85506 36324 ft 464 kts 341°
2026-04-22 21:49 51.37566 11.81668 36325 ft 464 kts 341°
2026-04-22 21:50 51.43535 11.77815 36321 ft 465 kts 341°
2026-04-22 21:50 51.49528 11.73936 36325 ft 465 kts 341°
2026-04-22 21:51 51.55512 11.70051 36326 ft 465 kts 341°
2026-04-22 21:52 51.64511 11.64188 36326 ft 465 kts 341°
2026-04-22 21:52 51.70494 11.60276 36328 ft 464 kts 341°
2026-04-22 21:53 51.76453 11.56369 36330 ft 465 kts 341°
2026-04-22 21:53 51.82453 11.52423 36335 ft 464 kts 341°
2026-04-22 21:54 51.88421 11.48488 36338 ft 465 kts 341°
2026-04-22 21:54 51.94416 11.44523 36329 ft 465 kts 341°
2026-04-22 21:55 52.00357 11.40583 36333 ft 466 kts 341°
2026-04-22 21:55 52.06373 11.36580 36324 ft 465 kts 341°
2026-04-22 21:56 52.12357 11.32589 36323 ft 466 kts 341°
2026-04-22 21:56 52.18354 11.28576 36324 ft 467 kts 341°
2026-04-22 21:57 52.24344 11.24556 36324 ft 467 kts 341°
2026-04-22 21:57 52.30364 11.20505 36321 ft 466 kts 341°
2026-04-22 21:58 52.36382 11.16442 36314 ft 465 kts 341°
2026-04-22 21:58 52.39351 11.14432 35949 ft 461 kts 341°
2026-04-22 21:58 52.42314 11.12424 35262 ft 465 kts 341°
2026-04-22 21:58 52.45320 11.10387 34460 ft 471 kts 341°
2026-04-22 21:59 52.48380 11.08310 33632 ft 477 kts 341°
2026-04-22 21:59 52.51464 11.06213 32638 ft 482 kts 341°
2026-04-22 21:59 52.54591 11.04083 31685 ft 486 kts 341°
2026-04-22 21:59 52.57706 11.01957 30863 ft 485 kts 341°
2026-04-22 22:00 52.60770 10.99860 30367 ft 477 kts 341°
2026-04-22 22:00 52.63810 10.97775 29861 ft 469 kts 341°
2026-04-22 22:00 52.66799 10.95723 29337 ft 462 kts 341°
2026-04-22 22:00 52.69751 10.93694 28804 ft 456 kts 341°
2026-04-22 22:01 52.72655 10.91696 28256 ft 450 kts 341°
2026-04-22 22:01 52.75503 10.89734 27735 ft 444 kts 341°
2026-04-22 22:01 52.78316 10.87794 27203 ft 438 kts 340°
2026-04-22 22:01 52.81092 10.85885 26673 ft 432 kts 342°
2026-04-22 22:02 52.83909 10.84421 26156 ft 423 kts 350°
2026-04-22 22:02 52.86829 10.83613 25339 ft 427 kts 355°
2026-04-22 22:02 52.89762 10.83029 24581 ft 428 kts 356°
2026-04-22 22:02 52.92715 10.82444 23977 ft 423 kts 356°
2026-04-22 22:03 52.95578 10.81872 23476 ft 416 kts 356°
2026-04-22 22:03 52.98446 10.81295 22990 ft 409 kts 355°
2026-04-22 22:03 53.01232 10.80732 22526 ft 402 kts 355°
2026-04-22 22:03 53.03975 10.80176 22052 ft 395 kts 355°
2026-04-22 22:04 53.06683 10.79625 21585 ft 391 kts 355°
2026-04-22 22:04 53.09392 10.79073 21244 ft 389 kts 355°
2026-04-22 22:04 53.12057 10.78527 20782 ft 383 kts 355°
2026-04-22 22:04 53.14691 10.77988 20171 ft 381 kts 355°
2026-04-22 22:05 53.17283 10.77456 19591 ft 379 kts 355°
2026-04-22 22:05 53.19888 10.76920 19061 ft 375 kts 355°
2026-04-22 22:05 53.22435 10.76395 18524 ft 371 kts 355°
2026-04-22 22:05 53.24985 10.75869 17967 ft 368 kts 355°
2026-04-22 22:06 53.27522 10.75345 17426 ft 365 kts 355°
2026-04-22 22:06 53.30034 10.74819 16878 ft 363 kts 354°
2026-04-22 22:06 53.32445 10.73808 16329 ft 363 kts 341°
2026-04-22 22:06 53.34706 10.71966 15783 ft 362 kts 334°
2026-04-22 22:07 53.36889 10.69923 15237 ft 359 kts 334°
2026-04-22 22:07 53.39037 10.67894 14614 ft 355 kts 334°
2026-04-22 22:07 53.41167 10.65879 13987 ft 352 kts 333°
2026-04-22 22:07 53.43295 10.63863 13353 ft 348 kts 333°
2026-04-22 22:08 53.45363 10.61902 12737 ft 345 kts 333°
2026-04-22 22:08 53.47446 10.59925 12101 ft 342 kts 333°
2026-04-22 22:08 53.49500 10.57973 11481 ft 340 kts 333°
2026-04-22 22:08 53.51536 10.56036 10933 ft 335 kts 333°
2026-04-22 22:09 53.53518 10.54147 10392 ft 324 kts 333°
2026-04-22 22:09 53.55448 10.52305 9840 ft 313 kts 333°
2026-04-22 22:09 53.57299 10.50538 9305 ft 304 kts 333°
2026-04-22 22:09 53.59108 10.48809 8758 ft 297 kts 333°
2026-04-22 22:10 53.60902 10.47095 8236 ft 294 kts 333°
2026-04-22 22:10 53.62671 10.45406 7823 ft 292 kts 333°
2026-04-22 22:10 53.64429 10.43768 7454 ft 290 kts 334°
2026-04-22 22:10 53.66179 10.42151 7054 ft 288 kts 334°
2026-04-22 22:11 53.67936 10.40530 6657 ft 286 kts 334°
2026-04-22 22:11 53.69660 10.38941 6226 ft 283 kts 334°
2026-04-22 22:11 53.71359 10.37381 5798 ft 275 kts 334°
2026-04-22 22:11 53.73013 10.35875 5418 ft 265 kts 334°
2026-04-22 22:12 53.74605 10.34435 5048 ft 256 kts 333°
2026-04-22 22:12 53.76046 10.32764 4666 ft 251 kts 312°
2026-04-22 22:12 53.76834 10.30199 4311 ft 246 kts 282°
2026-04-22 22:12 53.76796 10.27376 3976 ft 244 kts 253°
2026-04-22 22:13 53.75948 10.24935 3658 ft 239 kts 233°
2026-04-22 22:13 53.74872 10.22785 3355 ft 231 kts 232°
2026-04-22 22:13 53.73848 10.20764 3079 ft 218 kts 232°
2026-04-22 22:13 53.72912 10.18889 2848 ft 201 kts 233°
2026-04-22 22:14 53.72049 10.17128 2612 ft 188 kts 234°
2026-04-22 22:14 53.71246 10.15485 2389 ft 178 kts 234°
2026-04-22 22:14 53.70475 10.13909 2168 ft 170 kts 234°
2026-04-22 22:14 53.69944 10.12826 2016 ft 169 kts 234°
2026-04-22 22:15 53.69192 10.11298 1797 ft 168 kts 234°
2026-04-22 22:15 53.68472 10.09837 1584 ft 158 kts 234°
2026-04-22 22:15 53.67783 10.08434 1379 ft 153 kts 234°
2026-04-22 22:15 53.67113 10.07075 1179 ft 149 kts 234°
2026-04-22 22:16 53.66444 10.05727 936 ft 149 kts 233°
2026-04-22 22:16 53.65786 10.04392 760 ft 146 kts 233°
2026-04-22 22:16 53.65152 10.03096 581 ft 144 kts 233°
2026-04-22 22:16 53.64498 10.01809 385 ft 147 kts 233°
2026-04-22 22:17 53.63852 10.00480 174 ft 147 kts 233°
2026-04-22 22:17 53.63214 9.99189 72 ft 135 kts 232°
2026-04-22 22:17 53.62705 9.98149 68 ft 92 kts 231°
2026-04-22 22:17 53.62394 9.97522 68 ft 44 kts 230°
2026-04-22 22:18 53.62243 9.97381 68 ft 17 kts 158°
2026-04-22 22:18 53.62180 9.97533 68 ft 15 kts 89°
2026-04-22 22:18 53.62231 9.97689 68 ft 15 kts 50°
2026-04-22 22:18 53.62299 9.97825 68 ft 14 kts 51°
2026-04-22 22:19 53.62362 9.97955 68 ft 14 kts 50°
2026-04-22 22:19 53.62443 9.98097 68 ft 18 kts 43°
2026-04-22 22:19 53.62538 9.98247 68 ft 18 kts 46°
2026-04-22 22:19 53.62617 9.98405 68 ft 17 kts 51°
2026-04-22 22:20 53.62691 9.98555 68 ft 16 kts 50°
2026-04-22 22:20 53.62761 9.98697 68 ft 15 kts 50°
2026-04-22 22:20 53.62829 9.98833 68 ft 14 kts 50°
2026-04-22 22:20 53.62893 9.98963 68 ft 14 kts 51°
2026-04-22 22:21 53.62962 9.99104 68 ft 16 kts 51°
2026-04-22 22:21 53.63041 9.99266 68 ft 18 kts 52°
2026-04-22 22:21 53.63113 9.99434 68 ft 17 kts 54°
2026-04-22 22:21 53.63182 9.99593 68 ft 16 kts 51°
2026-04-22 22:22 53.63257 9.99728 68 ft 15 kts 44°
2026-04-22 22:22 53.63327 9.99860 68 ft 14 kts 51°
2026-04-22 22:22 53.63391 9.99990 68 ft 14 kts 50°
2026-04-22 22:22 53.63429 10.00123 68 ft 12 kts 108°
2026-04-22 22:23 53.63359 10.00197 68 ft 12 kts 176°
2026-04-22 22:23 53.63274 10.00206 68 ft 12 kts 176°
2026-04-22 22:23 53.63192 10.00215 68 ft 11 kts 176°
2026-04-22 22:23 53.63111 10.00223 68 ft 11 kts 177°
2026-04-22 22:24 53.63044 10.00258 68 ft 10 kts 127°
2026-04-22 22:24 53.63019 10.00321 68 ft 2 kts 122°
2026-04-22 22:24 53.63013 10.00339 68 ft 0 kts 122°